Voltar ao catálogo

KINEIS-2D

AtivoComunicaçõesSSO
NORAD 62930·PAYLOAD·🇫🇷 France

Lançado Feb 8, 2025 de Rocket Lab Launch Complex 1

Loading…

Próximas Passagens (próximas 24 horas)

TLE

AtualizadoSource: Space-Track

Época: Sep 14, 2026, 21:18 UTC

1 62930U 25028C   26257.88808804  .00001094  00000-0  16648-3 0  9995
2 62930  97.9201 308.5811 0001729 277.1954  82.9059 14.75909504 85943

Acompanhe KINEIS-2D em tempo real com AllMySat

Download on the App Store